Location: Caualo
(45.5667°N, 10.8667°E)
Time: 02:02:55
(UTC+00:00)

Meteor 2-10 Rocket - Pass Details

Date: 07 June 2020
Orbit: 733 x 885 km, 81.2° (Epoch: 06 July)

Event Time Altitude Azimuth Distance (km) Brightness Sun altitude
Rises 00:26:47 0° 342° (NNW) 3,240 7.6 -19.8°
Reaches altitude 10° 00:29:17 10° 334° (NNW) 2,291 6.6 -19.6°
Maximum altitude 00:33:59 38° 268° (W) 1,132 4.2 -19.4°
Enters shadow 00:35:15 32° 235° (SW) 1,250 4.2 -19.3°
